Regional Weather Roundup
Issued by NWS Upton, NY

Current Version | Previous Version | Graphics & Text | Print | Product List | Glossary On
Versions: 1 2 3 4 5 6 7 8 9 10 11 12 13 14 15 16 17 18 19 20 21 22 23 24 25 26 27 28 29 30 31 32 33 34 35 36 37 38 39 40 41 42 43 44 45 46 47 48 49 50
000
ASUS41 KOKX 060608
RWROKX

REGIONAL WEATHER ROUNDUP
NATIONAL WEATHER SERVICE NEW YORK NY
200 AM EDT WED MAY 06 2015

NOTE: "FAIR" INDICATES FEW OR NO CLOUDS BELOW 12,000 FEET WITH NO
SIGNIFICANT WEATHER AND/OR OBSTRUCTIONS TO VISIBILITY.

NYZ071-072-176-178-NJZ106-104-060700-
NEW YORK CITY METRO AREA


CITY           SKY/WX    TMP DP  RH WIND       PRES   REMARKS
CENTRAL PARK   CLOUDY    71  46  40 NE6       30.22S
LAGUARDIA APRT CLOUDY    65  51  60 N7        30.19S
KENNEDY INTL   CLOUDY    66  54  65 N5        30.19F
NEWARK/LIBERTY MOCLDY    69  47  45 NE9       30.19F
BRNX BOT. GARD   N/A     68  46  45 CALM      30.19F
TETERBORO      CLOUDY    68  48  48 N3        30.19S
$$

NYZ177-179-078>081-060700-
LONG ISLAND NEW YORK

CITY           SKY/WX    TMP DP  RH WIND       PRES   REMARKS
FARMINGDALE    CLOUDY    62  54  74 CALM      30.18F
ISLIP          CLOUDY    60  53  77 CALM      30.16F
SHIRLEY        CLOUDY    58  53  84 CALM      30.18F
WESTHAMPTON    CLOUDY    54  50  86 CALM      30.19F
MONTAUK POINT    N/A     55  49  80 CALM      30.21S
$$

NYZ052-065-067-060700-
HUDSON VALLEY

CITY           SKY/WX    TMP DP  RH WIND       PRES   REMARKS
WHITE PLAINS   DRIZZLE   68  41  37 N7        30.19F
NEWBURGH       MOCLDY    64  46  52 E12       30.23S
MONTGOMERY     CLOUDY    62  51  67 CALM      30.22S
POUGHKEEPSIE   CLOUDY    62  49  62 CALM      30.22R
ALBANY         MOCLDY    57  38  48 N5        30.26S
$$

NJZ001-105-106-008-010-013-015-019>022-104-060700-
NEW JERSEY

CITY           SKY/WX    TMP DP  RH WIND       PRES   REMARKS
NEWARK/LIBERTY MOCLDY    69  47  45 NE9       30.19F
TETERBORO      CLOUDY    68  48  48 N3        30.19S
CALDWELL       CLOUDY    65  51  60 E3        30.21S
MORRISTOWN     CLOUDY    64  54  68 CALM      30.20F
SOMERVILLE     CLOUDY    65  58  78 CALM      30.18S
SUSSEX         CLOUDY    62  52  69 CALM      30.23F
ANDOVER          N/A     63  54  72 CALM      30.22F
TRENTON        CLOUDY    69  56  62 SW3       30.19F
MILLVILLE      CLOUDY    62  62 100 W3        30.21S FOG
ATLANTIC CITY  CLOUDY    66  64  93 CALM      30.20S
WRIGHTSTOWN    CLOUDY    67  62  83 W2        30.17F
TOMS RIVER     CLOUDY    68  61  77 CALM      30.18F
BELMAR         MOCLDY    68  55  64 W6        30.19S
$$

PAZ047>061-062-071-060700-
EASTERN PENNSYLVANIA

CITY           SKY/WX    TMP DP  RH WIND       PRES   REMARKS
PHILADELPHIA   LGT RAIN  71  62  73 W7        30.21F
ALLENTOWN      CLOUDY    66  57  72 CALM      30.20F
SCRANTON       LGT RAIN  64  47  53 NE8       30.25S
$$

CTZ002-004>006-009-010-012-RIZ004-006-007-MAZ004-011-015-060700-
SOUTHERN NEW ENGLAND
 IN CT

CITY           SKY/WX    TMP DP  RH WIND       PRES   REMARKS
BRADLEY INTL   MOCLDY    57  42  57 N6        30.21S
HARTFORD       CLOUDY    62  48  60 VRB5      30.20F
DANBURY        CLOUDY    61  45  55 CALM      30.22F
WTRBRY/OXFORD    N/A     64  37  36 N9        30.23R
BRIDGEPORT     CLOUDY    59  52  77 E6        30.19F
MERIDEN        CLOUDY    65  48  54 CALM      30.20S
NEW HAVEN      CLOUDY    60  53  77 CALM      30.19F
CHESTER        FAIR      61  52  72 N3        30.21F
GROTON         CLOUDY    55  49  80 CALM      30.19F
WILLIMANTIC    CLOUDY    60  52  74 CALM      30.22S

 IN RI

CITY           SKY/WX    TMP DP  RH WIND       PRES   REMARKS
PROVIDENCE     CLOUDY    55  50  83 NE3       30.21F
BLOCK ISLAND   CLOUDY    54  46  76 SE5       30.19F
WESTERLY       CLOUDY    58  51  78 CALM      30.20F

 IN MA

CITY           SKY/WX    TMP DP  RH WIND       PRES   REMARKS
BOSTON         PTCLDY    53  50  89 NE5       30.24S
WORCESTER      PTCLDY    63  36  36 N7        30.24S
WESTFIELD      PTCLDY    52  40  63 N6        30.23R
PROVINCETOWN   MOCLDY    52  48  87 CALM      30.23S
NANTUCKET      MOCLDY    49  45  86 N3        30.21F
$$

ANZ330-335-338-340-345-350-353-355-060700-
COASTAL MARINE OBSERVATIONS


STATION/POSITION TIME  SKY/WX   TEMP    WIND        PRES    VSBY  WAVE
                                AIR SEA DIR/SP/G                  HT/PER
                 (UTC)          (F)     (DEG/KT/KT) (MB)    (MI)  (FT/S)
NY HARB ENTRANCE 0550            56 52  320/  2/  2 1021.9          2/ 5
4S FIRE IS       0503               52                N/A           3/ 6
20S FIRE ISLAND  0550            53 49  300/ 10/ 12 1022.1          3/ 7
GREAT SOUTH BAY  0500            59 60   CALM  /  6   N/A
23SW MTP         0550            50 49  130/  4/  4 1022.1          3/ 7
HUDSON CANYON    NOT AVBL
KINGS POINT      0500            60 48   CALM  /  1 1021.8
EASTERN LI SOUND 0500            52      60/  4/  6   N/A
ROBBINS REEF     0500            70     350/  6/  8 1021.3
$$


>>>>>>>>>>>>>>>>>>>>>>>>>>>> KEY <<<<<<<<<<<<<<<<<<<<<<<<<<<
>                                                          <
>     SKY/WX - SKY CONDITION/PRESENT WEATHER               <
>     TMP    - TEMPERATURE IN FAHRENHEIT                   <
>     DP     - DEWPOINT IN FAHRENHEIT                      <
>     RH     - RELATIVE HUMIDITY IN PERCENT                <
>     WIND   - DIRECTION AND SPEED IN MPH                  <
>     PRES   - MEAN SEA LEVEL PRESSURE IN INCHES OF HG     <
>     WCI    - WIND CHILL INDEX                            <
>     VSB    - VISIBILITY IN MILES                         <
>     HX     - HEAT INDEX                                  <
>     TC     - TEMPERATURE IN CELSIUS                      <
>     VRB    - VARIABLE WIND DIRECTION                     <
>                                                          <
>>>>>>>>>>>>>>>>>>>>>>>>>>>> KEY <<<<<<<<<<<<<<<<<<<<<<<<<<<





USA.gov is the U.S. government's official web portal to all federal, state and local government web resources and services.